This is the latest recevied weather packets stored in our database for station/object N4LLZ-13. If no packets are shown the sender has not sent any weather packets the latest 10 day(s).
| Time | Temp. | Humidity | Pressure | Rain* | Wind** | Luminosity | Snow |
|---|---|---|---|---|---|---|---|
| 1787868796 | 23.89° C | 92% | 1014.3 hPa | 80.01 mm | - | - | - |
| 1787868495 | 23.89° C | 91% | 1014.5 hPa | 77.22 mm | - | - | - |
| 1787868194 | 23.89° C | 92% | 1014.5 hPa | 75.95 mm | - | - | - |
| 1787867893 | 23.89° C | 91% | 1014.7 hPa | 72.14 mm | - | - | - |
| 1787867592 | 24.44° C | 91% | 1014.7 hPa | 63.75 mm | - | - | - |
| 1787867291 | 25° C | 91% | 1014.7 hPa | 53.09 mm | - | - | - |
| 1787866991 | 25.56° C | 89% | 1014.8 hPa | 41.15 mm | - | - | - |
| 1787866690 | 25.56° C | 87% | 1014.8 hPa | 23.37 mm | - | - | - |
| 1787866390 | 25.56° C | 84% | 1014.4 hPa | 12.19 mm | - | - | - |
| 1787866089 | 26.11° C | 82% | 1013.8 hPa | 4.32 mm | - | - | - |
| 1787865788 | 26.11° C | 81% | 1013.6 hPa | 3.3 mm | - | - | - |
| 1787865487 | 26.11° C | 79% | 1013.8 hPa | 4.32 mm | - | - | - |
| 1787865186 | 26.67° C | 79% | 1013.8 hPa | 4.32 mm | - | - | - |
| 1787864885 | 26.67° C | 77% | 1013.8 hPa | 3.56 mm | - | - | - |
| 1787864584 | 27.22° C | 72% | 1013.8 hPa | 4.06 mm | - | - | - |
| 1787864283 | 27.22° C | 70% | 1014.2 hPa | 4.06 mm | - | - | - |
| 1787863983 | 27.78° C | 68% | 1014.1 hPa | 3.81 mm | - | - | - |
| 1787863682 | 27.78° C | 67% | 1014.2 hPa | 3.3 mm | - | - | - |
| 1787863381 | 27.78° C | 69% | 1014.8 hPa | 3.3 mm | - | - | - |
| 1787863080 | 28.33° C | 69% | 1014.8 hPa | 2.29 mm | - | - | - |
| 1787862779 | 28.89° C | 71% | 1014.5 hPa | 2.29 mm | - | - | - |
| 1787862478 | 28.89° C | 70% | 1014.7 hPa | 2.29 mm | - | - | - |
| 1787862177 | 28.89° C | 68% | 1014.5 hPa | 0.51 mm | - | - | - |
| 1787861876 | 29.44° C | 68% | 1014.2 hPa | 0.51 mm | - | - | - |
| 1787861575 | 29.44° C | 66% | 1014.1 hPa | 0.51 mm | - | - | - |
* Rain latest hour (hover to see other rain measurements)
** Current wind speed in m/s (hover to see current wind gust speed)